Location: Unspecified
(0.0000°N, 0.0000°E)
Time: 06:21:48
(UTC+00:00)

Transit 2A Rocket - All Passes

Search period start: 14 December 2017 00:00
Search period end: 24 December 2017 00:00
Orbit: 584 x 920 km, 66.7° (Epoch: 13 December)

Date Brightness Start Highest point End Pass type
(mag) Time Alt. Az. Time Alt. Az. Time Alt. Az.
14 Dec - 00:12:53 10° SSW 00:18:04 72° WNW 00:23:44 10° NNE night (unlit)
14 Dec - 11:03:23 10° NNE 11:07:00 19° ENE 11:10:24 10° ESE daylight
14 Dec - 12:45:24 10° WNW 12:49:19 23° WSW 12:53:00 10° SSW daylight
14 Dec - 23:30:39 10° S 23:35:43 54° ESE 23:41:14 10° NNE night (unlit)
15 Dec - 12:02:05 10° NNW 12:07:02 51° WSW 12:11:33 10° S daylight
15 Dec - 22:49:07 10° SSE 22:53:24 26° ESE 22:57:59 10° NE night (unlit)
16 Dec - 00:31:45 10° WSW 00:35:47 22° WNW 00:40:03 10° NNW night (unlit)
16 Dec - 11:19:34 10° NNW 11:24:42 71° ENE 11:29:21 10° SSE daylight
16 Dec - 22:09:05 10° SE 22:11:06 12° ESE 22:13:11 10° E night (unlit)
16 Dec - 23:48:19 10° SW 23:53:19 44° WNW 23:58:44 10° N night (unlit)
17 Dec - 10:37:44 10° N 10:42:16 31° ENE 10:46:27 10° SE daylight
17 Dec - 12:22:12 10° W 12:24:28 13° WSW 12:26:40 10° SW daylight
17 Dec - 23:05:40 10° SSW 23:10:54 89° ESE 23:16:39 10° NNE night (unlit)
18 Dec - 09:57:01 10° NE 09:59:47 15° ENE 10:02:25 10° E daylight
18 Dec - 11:37:50 10° NW 11:42:11 29° WSW 11:46:12 10° S daylight
18 Dec - 22:23:39 10° S 22:28:35 42° ESE 22:33:55 10° NE night (unlit)
19 Dec - 00:08:32 10° W 00:11:06 13° WNW 00:13:45 10° NW night (unlit)
19 Dec - 10:54:50 10° NNW 10:59:53 67° WSW 11:04:29 10° SSE daylight
19 Dec - 21:42:25 10° SSE 21:46:17 21° ESE 21:50:22 10° ENE night (unlit)
19 Dec - 23:24:05 10° SW 23:28:35 27° WNW 23:33:24 10° NNW night (unlit)
20 Dec - 10:12:32 10° N 10:17:31 53° ENE 10:22:03 10° SSE daylight
20 Dec - 22:40:58 10° SSW 22:46:08 56° WNW 22:51:47 10° N night (unlit)
21 Dec - 09:31:00 10° NNE 09:35:04 24° ENE 09:38:52 10° ESE daylight
21 Dec - 11:14:08 10° WNW 11:17:19 17° WSW 11:20:20 10° SSW daylight
21 Dec - 21:58:31 10° SSW 22:03:46 71° ESE 22:09:29 10° NNE night (unlit)
22 Dec - 08:51:20 10° NE 08:52:33 11° ENE 08:53:46 10° E daylight
22 Dec - 10:30:25 10° NW 10:35:02 38° WSW 10:39:18 10° S daylight
22 Dec - 21:16:43 10° S 21:21:26 34° ESE 21:26:32 10° NE visible
22 Dec - 23:00:23 10° WSW 23:03:53 17° WNW 23:07:35 10° NNW night (unlit)
23 Dec - 09:47:39 10° NNW 09:52:43 88° WSW 09:57:19 10° SSE daylight
23 Dec - 20:35:54 10° SE 20:39:08 16° ESE 20:42:33 10° ENE visible
23 Dec - 22:16:33 10° SW 22:21:24 35° WNW 22:26:37 10° N night (unlit)
